Year,Month,Day,Hour,Minute,Value (Times are PST for temperature in C)
2019,10,30,00,00,1.00
2019,10,30,00,01,1.00
2019,10,30,00,02,1.00
2019,10,30,00,03,1.00
2019,10,30,00,04,1.00
2019,10,30,00,05,1.00
2019,10,30,00,06,0.90
2019,10,30,00,07,0.90
2019,10,30,00,08,0.90
2019,10,30,00,09,0.90
2019,10,30,00,10,0.80
2019,10,30,00,11,0.80
2019,10,30,00,12,0.80
2019,10,30,00,13,0.80
2019,10,30,00,14,0.80
2019,10,30,00,15,0.70
2019,10,30,00,16,0.70
2019,10,30,00,17,0.70
2019,10,30,00,18,0.70
2019,10,30,00,19,0.60
2019,10,30,00,20,0.60
2019,10,30,00,21,0.60
2019,10,30,00,22,0.60
2019,10,30,00,23,0.50
2019,10,30,00,24,0.50
2019,10,30,00,25,0.50
2019,10,30,00,26,0.60
2019,10,30,00,27,0.60
2019,10,30,00,28,0.60
2019,10,30,00,29,0.60
2019,10,30,00,30,0.60
2019,10,30,00,31,0.60
2019,10,30,00,32,0.60
2019,10,30,00,33,0.60
2019,10,30,00,34,0.60
2019,10,30,00,35,0.60
2019,10,30,00,36,0.60
2019,10,30,00,37,0.60
2019,10,30,00,38,0.50
2019,10,30,00,39,0.50
2019,10,30,00,40,0.50
2019,10,30,00,41,0.50
2019,10,30,00,42,0.40
2019,10,30,00,43,0.40
2019,10,30,00,44,0.40
2019,10,30,00,45,0.40
2019,10,30,00,46,0.30
2019,10,30,00,47,0.30
2019,10,30,00,48,0.30
2019,10,30,00,49,0.30
2019,10,30,00,50,0.30
2019,10,30,00,51,0.30
2019,10,30,00,52,0.20
2019,10,30,00,53,0.20
2019,10,30,00,54,0.20
2019,10,30,00,55,0.20
2019,10,30,00,56,0.20
2019,10,30,00,57,0.30
2019,10,30,00,58,0.30
2019,10,30,00,59,0.30
2019,10,30,01,00,0.30
2019,10,30,01,01,0.30
2019,10,30,01,02,0.30
2019,10,30,01,03,0.40
2019,10,30,01,04,0.40
2019,10,30,01,05,0.40
2019,10,30,01,06,0.50
2019,10,30,01,07,0.50
2019,10,30,01,08,0.60
2019,10,30,01,09,0.70
2019,10,30,01,10,0.90
2019,10,30,01,11,1.00
2019,10,30,01,12,1.20
2019,10,30,01,13,1.30
2019,10,30,01,14,1.30
2019,10,30,01,15,1.40
2019,10,30,01,16,1.40
2019,10,30,01,17,1.40
2019,10,30,01,18,1.40
2019,10,30,01,19,1.40
2019,10,30,01,20,1.40
2019,10,30,01,21,1.40
2019,10,30,01,22,1.30
2019,10,30,01,23,1.30
2019,10,30,01,24,1.30
2019,10,30,01,25,1.30
2019,10,30,01,26,1.20
2019,10,30,01,27,1.20
2019,10,30,01,28,1.20
2019,10,30,01,29,1.20
2019,10,30,01,30,1.20
2019,10,30,01,31,1.20
2019,10,30,01,32,1.10
2019,10,30,01,33,1.10
2019,10,30,01,34,1.10
2019,10,30,01,35,1.00
2019,10,30,01,36,1.00
2019,10,30,01,37,0.90
2019,10,30,01,38,0.90
2019,10,30,01,39,0.90
2019,10,30,01,40,1.00
2019,10,30,01,41,1.10
2019,10,30,01,42,1.20
2019,10,30,01,43,1.40
2019,10,30,01,44,1.60
2019,10,30,01,45,1.70
2019,10,30,01,46,1.90
2019,10,30,01,47,2.00
2019,10,30,01,48,2.10
2019,10,30,01,49,2.00
2019,10,30,01,50,2.00
2019,10,30,01,51,1.90
2019,10,30,01,52,1.90
2019,10,30,01,53,1.90
2019,10,30,01,54,1.80
2019,10,30,01,55,1.70
2019,10,30,01,56,1.60
2019,10,30,01,57,1.60
2019,10,30,01,58,1.50
2019,10,30,01,59,1.40
2019,10,30,02,00,1.40
2019,10,30,02,01,1.30
2019,10,30,02,02,1.30
2019,10,30,02,03,1.30
2019,10,30,02,04,1.20
2019,10,30,02,05,1.20
2019,10,30,02,06,1.20
2019,10,30,02,07,1.20
2019,10,30,02,08,1.20
2019,10,30,02,09,1.20
2019,10,30,02,10,1.20
2019,10,30,02,11,1.20
2019,10,30,02,12,1.20
2019,10,30,02,13,1.20
2019,10,30,02,14,1.20
2019,10,30,02,15,1.20
2019,10,30,02,16,1.30
2019,10,30,02,17,1.40
2019,10,30,02,18,1.40
2019,10,30,02,19,1.50
2019,10,30,02,20,1.50
2019,10,30,02,21,1.50
2019,10,30,02,22,1.50
2019,10,30,02,23,1.50
2019,10,30,02,24,1.50
2019,10,30,02,25,1.40
2019,10,30,02,26,1.40
2019,10,30,02,27,1.40
2019,10,30,02,28,1.40
2019,10,30,02,29,1.50
2019,10,30,02,30,1.60
2019,10,30,02,31,1.80
2019,10,30,02,32,1.90
2019,10,30,02,33,2.10
2019,10,30,02,34,2.30
2019,10,30,02,35,2.40
2019,10,30,02,36,2.50
2019,10,30,02,37,2.50
2019,10,30,02,38,2.50
2019,10,30,02,39,2.50
2019,10,30,02,40,2.40
2019,10,30,02,41,2.40
2019,10,30,02,42,2.40
2019,10,30,02,43,2.40
2019,10,30,02,44,2.30
2019,10,30,02,45,2.30
2019,10,30,02,46,2.30
2019,10,30,02,47,2.30
2019,10,30,02,48,2.40
2019,10,30,02,49,2.40
2019,10,30,02,50,2.50
2019,10,30,02,51,2.50
2019,10,30,02,52,2.60
2019,10,30,02,53,2.60
2019,10,30,02,54,2.70
2019,10,30,02,55,2.70
2019,10,30,02,56,2.70
2019,10,30,02,57,2.70
2019,10,30,02,58,2.70
2019,10,30,02,59,2.70
2019,10,30,03,00,2.70
2019,10,30,03,01,2.70
2019,10,30,03,02,2.70
2019,10,30,03,03,2.70
2019,10,30,03,04,2.80
2019,10,30,03,05,2.80
2019,10,30,03,06,2.80
2019,10,30,03,07,2.80
2019,10,30,03,08,2.80
2019,10,30,03,09,2.90
2019,10,30,03,10,2.90
2019,10,30,03,11,2.90
2019,10,30,03,12,2.90
2019,10,30,03,13,2.80
2019,10,30,03,14,2.80
2019,10,30,03,15,2.70
2019,10,30,03,16,2.70
2019,10,30,03,17,2.60
2019,10,30,03,18,2.60
2019,10,30,03,19,2.50
2019,10,30,03,20,2.30
2019,10,30,03,21,2.20
2019,10,30,03,22,2.00
2019,10,30,03,23,1.80
2019,10,30,03,24,1.60
2019,10,30,03,25,1.40
2019,10,30,03,26,1.30
2019,10,30,03,27,1.10
2019,10,30,03,28,1.00
2019,10,30,03,29,0.90
2019,10,30,03,30,0.80
2019,10,30,03,31,0.70
2019,10,30,03,32,0.70
2019,10,30,03,33,0.70
2019,10,30,03,34,0.70
2019,10,30,03,35,0.80
2019,10,30,03,36,0.80
2019,10,30,03,37,0.90
2019,10,30,03,38,1.00
2019,10,30,03,39,1.20
2019,10,30,03,40,1.30
2019,10,30,03,41,1.40
2019,10,30,03,42,1.50
2019,10,30,03,43,1.50
2019,10,30,03,44,1.60
2019,10,30,03,45,1.60
2019,10,30,03,46,1.70
2019,10,30,03,47,1.70
2019,10,30,03,48,1.80
2019,10,30,03,49,1.90
2019,10,30,03,50,1.90
2019,10,30,03,51,2.00
2019,10,30,03,52,2.00
2019,10,30,03,53,2.10
2019,10,30,03,54,2.20
2019,10,30,03,55,2.20
2019,10,30,03,56,2.30
2019,10,30,03,57,2.30
2019,10,30,03,58,2.30
2019,10,30,03,59,2.30
2019,10,30,04,00,2.40
2019,10,30,04,01,2.40
2019,10,30,04,02,2.40
2019,10,30,04,03,2.40
2019,10,30,04,04,2.40
2019,10,30,04,05,2.40
2019,10,30,04,06,2.50
2019,10,30,04,07,2.40
2019,10,30,04,08,2.40
2019,10,30,04,09,2.30
2019,10,30,04,10,2.30
2019,10,30,04,11,2.30
2019,10,30,04,12,2.20
2019,10,30,04,13,2.20
2019,10,30,04,14,2.20
2019,10,30,04,15,2.20
2019,10,30,04,16,2.30
2019,10,30,04,17,2.30
2019,10,30,04,18,2.40
2019,10,30,04,19,2.40
2019,10,30,04,20,2.40
2019,10,30,04,21,2.40
2019,10,30,04,22,2.40
2019,10,30,04,23,2.40
2019,10,30,04,24,2.40
2019,10,30,04,25,2.40
2019,10,30,04,26,2.40
2019,10,30,04,27,2.30
2019,10,30,04,28,2.30
2019,10,30,04,29,2.20
2019,10,30,04,30,2.10
2019,10,30,04,31,2.10
2019,10,30,04,32,2.10
2019,10,30,04,33,2.10
2019,10,30,04,34,2.10
2019,10,30,04,35,2.20
2019,10,30,04,36,2.20
2019,10,30,04,37,2.30
2019,10,30,04,38,2.30
2019,10,30,04,39,2.40
2019,10,30,04,40,2.50
2019,10,30,04,41,2.50
2019,10,30,04,42,2.60
2019,10,30,04,43,2.60
2019,10,30,04,44,2.70
2019,10,30,04,45,2.70
2019,10,30,04,46,2.70
2019,10,30,04,47,2.70
2019,10,30,04,48,2.70
2019,10,30,04,49,2.70
2019,10,30,04,50,2.60
2019,10,30,04,51,2.40
2019,10,30,04,52,2.30
2019,10,30,04,53,2.20
2019,10,30,04,54,2.10
2019,10,30,04,55,2.00
2019,10,30,04,56,1.90
2019,10,30,04,57,1.90
2019,10,30,04,58,2.00
2019,10,30,04,59,2.00
2019,10,30,05,00,2.10
2019,10,30,05,01,2.10
2019,10,30,05,02,2.10
2019,10,30,05,03,2.20
2019,10,30,05,04,2.20
2019,10,30,05,05,2.20
2019,10,30,05,06,2.10
2019,10,30,05,07,2.10
2019,10,30,05,08,2.00
2019,10,30,05,09,1.90
2019,10,30,05,10,1.90
2019,10,30,05,11,1.90
2019,10,30,05,12,1.90
2019,10,30,05,13,1.90
2019,10,30,05,14,1.90
2019,10,30,05,15,2.00
2019,10,30,05,16,2.00
2019,10,30,05,17,2.10
2019,10,30,05,18,2.10
2019,10,30,05,19,2.10
2019,10,30,05,20,2.00
2019,10,30,05,21,2.00
2019,10,30,05,22,1.90
2019,10,30,05,23,1.90
2019,10,30,05,24,2.00
2019,10,30,05,25,2.00
2019,10,30,05,26,2.00
2019,10,30,05,27,2.10
2019,10,30,05,28,2.10
2019,10,30,05,29,2.10
2019,10,30,05,30,2.20
2019,10,30,05,31,2.20
2019,10,30,05,32,2.20
2019,10,30,05,33,2.30
2019,10,30,05,34,2.30
2019,10,30,05,35,2.20
2019,10,30,05,36,2.20
2019,10,30,05,37,2.20
2019,10,30,05,38,2.10
2019,10,30,05,39,2.10
2019,10,30,05,40,2.10
2019,10,30,05,41,2.10
2019,10,30,05,42,2.10
2019,10,30,05,43,2.10
2019,10,30,05,44,2.10
2019,10,30,05,45,2.10
2019,10,30,05,46,2.20
2019,10,30,05,47,2.20
2019,10,30,05,48,2.20
2019,10,30,05,49,2.20
2019,10,30,05,50,2.30
2019,10,30,05,51,2.30
2019,10,30,05,52,2.30
2019,10,30,05,53,2.30
2019,10,30,05,54,2.20
2019,10,30,05,55,2.20
2019,10,30,05,56,2.10
2019,10,30,05,57,2.00
2019,10,30,05,58,1.90
2019,10,30,05,59,1.90
2019,10,30,06,00,1.80
2019,10,30,06,01,1.80
2019,10,30,06,02,1.80
2019,10,30,06,03,1.80
2019,10,30,06,04,1.90
2019,10,30,06,05,1.90
2019,10,30,06,06,2.00
2019,10,30,06,07,2.00
2019,10,30,06,08,2.10
2019,10,30,06,09,2.20
2019,10,30,06,10,2.20
2019,10,30,06,11,2.20
2019,10,30,06,12,2.30
2019,10,30,06,13,2.30
2019,10,30,06,14,2.30
2019,10,30,06,15,2.30
2019,10,30,06,16,2.30
2019,10,30,06,17,2.30
2019,10,30,06,18,2.30
2019,10,30,06,19,2.30
2019,10,30,06,20,2.30
2019,10,30,06,21,2.20
2019,10,30,06,22,2.10
2019,10,30,06,23,2.00
2019,10,30,06,24,1.90
2019,10,30,06,25,1.80
2019,10,30,06,26,1.60
2019,10,30,06,27,1.50
2019,10,30,06,28,1.50
2019,10,30,06,29,1.40
2019,10,30,06,30,1.30
2019,10,30,06,31,1.30
2019,10,30,06,32,1.20
2019,10,30,06,33,1.20
2019,10,30,06,34,1.30
2019,10,30,06,35,1.30
2019,10,30,06,36,1.30
2019,10,30,06,37,1.40
2019,10,30,06,38,1.40
2019,10,30,06,39,1.50
2019,10,30,06,40,1.50
2019,10,30,06,41,1.60
2019,10,30,06,42,1.60
2019,10,30,06,43,1.60
2019,10,30,06,44,1.60
2019,10,30,06,45,1.60
2019,10,30,06,46,1.70
2019,10,30,06,47,1.70
2019,10,30,06,48,1.80
2019,10,30,06,49,1.90
2019,10,30,06,50,2.00
2019,10,30,06,51,2.10
2019,10,30,06,52,2.20
2019,10,30,06,53,2.30
2019,10,30,06,54,2.30
2019,10,30,06,55,2.40
2019,10,30,06,56,2.40
2019,10,30,06,57,2.40
2019,10,30,06,58,2.50
2019,10,30,06,59,2.50
2019,10,30,07,00,2.60
2019,10,30,07,01,2.60
2019,10,30,07,02,2.60
2019,10,30,07,03,2.60
2019,10,30,07,04,2.70
2019,10,30,07,05,2.70
2019,10,30,07,06,2.70
2019,10,30,07,07,2.70
2019,10,30,07,08,2.70
2019,10,30,07,09,2.70
2019,10,30,07,10,2.60
2019,10,30,07,11,2.60
2019,10,30,07,12,2.60
2019,10,30,07,13,2.60
2019,10,30,07,14,2.60
2019,10,30,07,15,2.60
2019,10,30,07,16,2.60
2019,10,30,07,17,2.60
2019,10,30,07,18,2.60
2019,10,30,07,19,2.60
2019,10,30,07,20,2.50
2019,10,30,07,21,2.50
2019,10,30,07,22,2.50
2019,10,30,07,23,2.50
2019,10,30,07,24,2.50
2019,10,30,07,25,2.60
2019,10,30,07,26,2.60
2019,10,30,07,27,2.60
2019,10,30,07,28,2.60
2019,10,30,07,29,2.60
2019,10,30,07,30,2.60
2019,10,30,07,31,2.60
2019,10,30,07,32,2.60
2019,10,30,07,33,2.70
2019,10,30,07,34,2.70
2019,10,30,07,35,2.70
2019,10,30,07,36,2.70
2019,10,30,07,37,2.70
2019,10,30,07,38,2.70
2019,10,30,07,39,2.70
2019,10,30,07,40,2.80
2019,10,30,07,41,2.80
2019,10,30,07,42,2.80
2019,10,30,07,43,2.80
2019,10,30,07,44,2.80
2019,10,30,07,45,2.80
2019,10,30,07,46,2.80
2019,10,30,07,47,2.80
2019,10,30,07,48,2.80
2019,10,30,07,49,2.80
2019,10,30,07,50,2.80
2019,10,30,07,51,2.80
2019,10,30,07,52,2.80
2019,10,30,07,53,2.90
2019,10,30,07,54,2.90
2019,10,30,07,55,2.90
2019,10,30,07,56,2.80
2019,10,30,07,57,2.80
2019,10,30,07,58,2.80
2019,10,30,07,59,2.80
2019,10,30,08,00,2.80
2019,10,30,08,01,2.80
2019,10,30,08,02,2.90
2019,10,30,08,03,2.80
2019,10,30,08,04,2.80
2019,10,30,08,05,2.80
2019,10,30,08,06,2.80
2019,10,30,08,07,2.90
2019,10,30,08,08,2.90
2019,10,30,08,09,2.90
2019,10,30,08,10,2.90
2019,10,30,08,11,3.00
2019,10,30,08,12,3.00
2019,10,30,08,13,3.00
2019,10,30,08,14,3.00
2019,10,30,08,15,3.10
2019,10,30,08,16,3.10
2019,10,30,08,17,3.10
2019,10,30,08,18,3.10
2019,10,30,08,19,3.20
2019,10,30,08,20,3.20
2019,10,30,08,21,3.20
2019,10,30,08,22,3.20
2019,10,30,08,23,3.20
2019,10,30,08,24,3.30
2019,10,30,08,25,3.30
2019,10,30,08,26,3.30
2019,10,30,08,27,3.30
2019,10,30,08,28,3.30
2019,10,30,08,29,3.30
2019,10,30,08,30,3.30
2019,10,30,08,31,3.30
2019,10,30,08,32,3.30
2019,10,30,08,33,3.30
2019,10,30,08,34,3.30
2019,10,30,08,35,3.40
2019,10,30,08,36,3.40
2019,10,30,08,37,3.40
2019,10,30,08,38,3.40
2019,10,30,08,39,3.50
2019,10,30,08,40,3.50
2019,10,30,08,41,3.50
2019,10,30,08,42,3.50
2019,10,30,08,43,3.50
2019,10,30,08,44,3.50
2019,10,30,08,45,3.50
2019,10,30,08,46,3.60
2019,10,30,08,47,3.60
2019,10,30,08,48,3.60
2019,10,30,08,49,3.60
2019,10,30,08,50,3.70
2019,10,30,08,51,3.70
2019,10,30,08,52,3.70
2019,10,30,08,53,3.70
2019,10,30,08,54,3.80
2019,10,30,08,55,3.80
2019,10,30,08,56,3.80
2019,10,30,08,57,3.80
2019,10,30,08,58,3.80
2019,10,30,08,59,3.90
2019,10,30,09,00,3.90
2019,10,30,09,01,3.90
2019,10,30,09,02,3.90
2019,10,30,09,03,3.90
2019,10,30,09,04,4.00
2019,10,30,09,05,4.00
2019,10,30,09,06,4.10
2019,10,30,09,07,4.10
2019,10,30,09,08,4.10
2019,10,30,09,09,4.10
2019,10,30,09,10,4.10
2019,10,30,09,11,4.20
2019,10,30,09,12,4.20
2019,10,30,09,13,4.20
2019,10,30,09,14,4.20
2019,10,30,09,15,4.30
2019,10,30,09,16,4.30
2019,10,30,09,17,4.30
2019,10,30,09,18,4.30
2019,10,30,09,19,4.30
2019,10,30,09,20,4.40
2019,10,30,09,21,4.40
2019,10,30,09,22,4.40
2019,10,30,09,23,4.50
2019,10,30,09,24,4.50
2019,10,30,09,25,4.50
2019,10,30,09,26,4.60
2019,10,30,09,27,4.60
2019,10,30,09,28,4.60
2019,10,30,09,29,4.70
2019,10,30,09,30,4.70
2019,10,30,09,31,4.80
2019,10,30,09,32,4.80
2019,10,30,09,33,4.80
2019,10,30,09,34,4.80
2019,10,30,09,35,4.90
2019,10,30,09,36,4.90
2019,10,30,09,37,4.90
2019,10,30,09,38,5.00
2019,10,30,09,39,5.00
2019,10,30,09,40,5.10
2019,10,30,09,41,5.10
2019,10,30,09,42,5.20
2019,10,30,09,43,5.20
2019,10,30,09,44,5.20
2019,10,30,09,45,5.20
2019,10,30,09,46,5.20
2019,10,30,09,47,5.30
2019,10,30,09,48,5.30
2019,10,30,09,49,5.30
2019,10,30,09,50,5.40
2019,10,30,09,51,5.40
2019,10,30,09,52,5.40
2019,10,30,09,53,5.50
2019,10,30,09,54,5.50
2019,10,30,09,55,5.60
2019,10,30,09,56,5.60
2019,10,30,09,57,5.60
2019,10,30,09,58,5.70
2019,10,30,09,59,5.70
2019,10,30,10,00,5.80
2019,10,30,10,01,5.80
2019,10,30,10,02,5.80
2019,10,30,10,03,5.80
2019,10,30,10,04,5.80
2019,10,30,10,05,5.90
2019,10,30,10,06,5.90
2019,10,30,10,07,5.90
2019,10,30,10,08,5.90
2019,10,30,10,09,6.00
2019,10,30,10,10,6.00
2019,10,30,10,11,6.00
2019,10,30,10,12,6.10
2019,10,30,10,13,6.10
2019,10,30,10,14,6.10
2019,10,30,10,15,6.20
2019,10,30,10,16,6.20
2019,10,30,10,17,6.30
2019,10,30,10,18,6.30
2019,10,30,10,19,6.30
2019,10,30,10,20,6.30
2019,10,30,10,21,6.30
2019,10,30,10,22,6.30
2019,10,30,10,23,6.40
2019,10,30,10,24,6.40
2019,10,30,10,25,6.40
2019,10,30,10,26,6.40
2019,10,30,10,27,6.40
2019,10,30,10,28,6.40
2019,10,30,10,29,6.40
2019,10,30,10,30,6.50
2019,10,30,10,31,6.50
2019,10,30,10,32,6.50
2019,10,30,10,33,6.50
2019,10,30,10,34,6.50
2019,10,30,10,35,6.50
2019,10,30,10,36,6.50
2019,10,30,10,37,6.50
2019,10,30,10,38,6.50
2019,10,30,10,39,6.60
2019,10,30,10,40,6.60
2019,10,30,10,41,6.60
2019,10,30,10,42,6.70
2019,10,30,10,43,6.70
2019,10,30,10,44,6.70
2019,10,30,10,45,6.70
2019,10,30,10,46,6.70
2019,10,30,10,47,6.70
2019,10,30,10,48,6.70
2019,10,30,10,49,6.70
2019,10,30,10,50,6.70
2019,10,30,10,51,6.70
2019,10,30,10,52,6.70
2019,10,30,10,53,6.80
2019,10,30,10,54,6.80
2019,10,30,10,55,6.90
2019,10,30,10,56,6.90
2019,10,30,10,57,7.00
2019,10,30,10,58,7.10
2019,10,30,10,59,7.20
2019,10,30,11,00,7.20
2019,10,30,11,01,7.30
2019,10,30,11,02,7.30
2019,10,30,11,03,7.30
2019,10,30,11,04,7.20
2019,10,30,11,05,7.20
2019,10,30,11,06,7.20
2019,10,30,11,07,7.20
2019,10,30,11,08,7.20
2019,10,30,11,09,7.20
2019,10,30,11,10,7.30
2019,10,30,11,11,7.30
2019,10,30,11,12,7.30
2019,10,30,11,13,7.30
2019,10,30,11,14,7.30
2019,10,30,11,15,7.20
2019,10,30,11,16,7.20
2019,10,30,11,17,7.20
2019,10,30,11,18,7.20
2019,10,30,11,19,7.20
2019,10,30,11,20,7.20
2019,10,30,11,21,7.20
2019,10,30,11,22,7.20
2019,10,30,11,23,7.10
2019,10,30,11,24,7.10
2019,10,30,11,25,7.20
2019,10,30,11,26,7.20
2019,10,30,11,27,7.20
2019,10,30,11,28,7.20
2019,10,30,11,29,7.20
2019,10,30,11,30,7.20
2019,10,30,11,31,7.20
2019,10,30,11,32,7.20
2019,10,30,11,33,7.20
2019,10,30,11,34,7.30
2019,10,30,11,35,7.40
2019,10,30,11,36,7.40
2019,10,30,11,37,7.50
2019,10,30,11,38,7.60
2019,10,30,11,39,7.70
2019,10,30,11,40,7.80
2019,10,30,11,41,7.90
2019,10,30,11,42,7.90
2019,10,30,11,43,7.90
2019,10,30,11,44,8.00
2019,10,30,11,45,8.00
2019,10,30,11,46,8.00
2019,10,30,11,47,8.10
2019,10,30,11,48,8.10
2019,10,30,11,49,8.10
2019,10,30,11,50,8.10
2019,10,30,11,51,8.10
2019,10,30,11,52,8.10
2019,10,30,11,53,8.00
2019,10,30,11,54,8.00
2019,10,30,11,55,8.00
2019,10,30,11,56,7.90
2019,10,30,11,57,7.90
2019,10,30,11,58,8.00
2019,10,30,11,59,8.00
2019,10,30,12,00,8.00
2019,10,30,12,01,8.00
2019,10,30,12,02,8.00
2019,10,30,12,03,8.00
2019,10,30,12,04,8.00
2019,10,30,12,05,8.00
2019,10,30,12,06,8.10
2019,10,30,12,07,8.10
2019,10,30,12,08,8.10
2019,10,30,12,09,8.20
2019,10,30,12,10,8.20
2019,10,30,12,11,8.20
2019,10,30,12,12,8.20
2019,10,30,12,13,8.20
2019,10,30,12,14,8.20
2019,10,30,12,15,8.20
2019,10,30,12,16,8.30
2019,10,30,12,17,8.40
2019,10,30,12,18,8.40
2019,10,30,12,19,8.40
2019,10,30,12,20,8.40
2019,10,30,12,21,8.40
2019,10,30,12,22,8.50
2019,10,30,12,23,8.60
2019,10,30,12,24,8.60
2019,10,30,12,25,8.60
2019,10,30,12,26,8.60
2019,10,30,12,27,8.50
2019,10,30,12,28,8.50
2019,10,30,12,29,8.60
2019,10,30,12,30,8.60
2019,10,30,12,31,8.60
2019,10,30,12,32,8.60
2019,10,30,12,33,8.60
2019,10,30,12,34,8.70
2019,10,30,12,35,8.60
2019,10,30,12,36,8.60
2019,10,30,12,37,8.60
2019,10,30,12,38,8.70
2019,10,30,12,39,8.70
2019,10,30,12,40,8.80
2019,10,30,12,41,8.80
2019,10,30,12,42,8.80
2019,10,30,12,43,8.80
2019,10,30,12,44,8.80
2019,10,30,12,45,8.70
2019,10,30,12,46,8.70
2019,10,30,12,47,8.70
2019,10,30,12,48,8.70
2019,10,30,12,49,8.70
2019,10,30,12,50,8.70
2019,10,30,12,51,8.80
2019,10,30,12,52,8.80
2019,10,30,12,53,8.80
2019,10,30,12,54,8.80
2019,10,30,12,55,8.80
2019,10,30,12,56,8.90
2019,10,30,12,57,8.90
2019,10,30,12,58,9.00
2019,10,30,12,59,9.10
2019,10,30,13,00,9.10
2019,10,30,13,01,9.20
2019,10,30,13,02,9.20
2019,10,30,13,03,9.20
2019,10,30,13,04,9.20
2019,10,30,13,05,9.10
2019,10,30,13,06,9.10
2019,10,30,13,07,9.20
2019,10,30,13,08,9.20
2019,10,30,13,09,9.20
2019,10,30,13,10,9.20
2019,10,30,13,11,9.20
2019,10,30,13,12,9.30
2019,10,30,13,13,9.40
2019,10,30,13,14,9.40
2019,10,30,13,15,9.40
2019,10,30,13,16,9.40
2019,10,30,13,17,9.40
2019,10,30,13,18,9.40
2019,10,30,13,19,9.40
2019,10,30,13,20,9.40
2019,10,30,13,21,9.40
2019,10,30,13,22,9.40
2019,10,30,13,23,9.50
2019,10,30,13,24,9.60
2019,10,30,13,25,9.70
2019,10,30,13,26,9.70
2019,10,30,13,27,9.70
2019,10,30,13,28,9.70
2019,10,30,13,29,9.70
2019,10,30,13,30,9.80
2019,10,30,13,31,9.80
2019,10,30,13,32,9.80
2019,10,30,13,33,9.90
2019,10,30,13,34,9.90
2019,10,30,13,35,9.80
2019,10,30,13,36,9.80
2019,10,30,13,37,9.80
2019,10,30,13,38,9.80
2019,10,30,13,39,9.80
2019,10,30,13,40,9.80
2019,10,30,13,41,9.90
2019,10,30,13,42,9.90
2019,10,30,13,43,10.00
2019,10,30,13,44,10.00
2019,10,30,13,45,10.00
2019,10,30,13,46,10.10
2019,10,30,13,47,10.00
2019,10,30,13,48,10.00
2019,10,30,13,49,10.10
2019,10,30,13,50,10.10
2019,10,30,13,51,10.10
2019,10,30,13,52,10.20
2019,10,30,13,53,10.20
2019,10,30,13,54,10.20
2019,10,30,13,55,10.20
2019,10,30,13,56,10.20
2019,10,30,13,57,10.20
2019,10,30,13,58,10.30
2019,10,30,13,59,10.30
2019,10,30,14,00,10.30
2019,10,30,14,01,10.20
2019,10,30,14,02,10.20
2019,10,30,14,03,10.20
2019,10,30,14,04,10.20
2019,10,30,14,05,10.20
2019,10,30,14,06,10.30
2019,10,30,14,07,10.30
2019,10,30,14,08,10.30
2019,10,30,14,09,10.30
2019,10,30,14,10,10.30
2019,10,30,14,11,10.30
2019,10,30,14,12,10.30
2019,10,30,14,13,10.30
2019,10,30,14,14,10.30
2019,10,30,14,15,10.30
2019,10,30,14,16,10.30
2019,10,30,14,17,10.30
2019,10,30,14,18,10.30
2019,10,30,14,19,10.30
2019,10,30,14,20,10.30
2019,10,30,14,21,10.30
2019,10,30,14,22,10.20
2019,10,30,14,23,10.20
2019,10,30,14,24,10.10
2019,10,30,14,25,10.20
2019,10,30,14,26,10.20
2019,10,30,14,27,10.20
2019,10,30,14,28,10.20
2019,10,30,14,29,10.20
2019,10,30,14,30,10.20
2019,10,30,14,31,10.20
2019,10,30,14,32,10.30
2019,10,30,14,33,10.30
2019,10,30,14,34,10.30
2019,10,30,14,35,10.30
2019,10,30,14,36,10.30
2019,10,30,14,37,10.30
2019,10,30,14,38,10.30
2019,10,30,14,39,10.30
2019,10,30,14,40,10.30
2019,10,30,14,41,10.30
2019,10,30,14,42,10.30
2019,10,30,14,43,10.30
2019,10,30,14,44,10.30
2019,10,30,14,45,10.40
2019,10,30,14,46,10.40
2019,10,30,14,47,10.50
2019,10,30,14,48,10.60
2019,10,30,14,49,10.60
2019,10,30,14,50,10.60
2019,10,30,14,51,10.60
2019,10,30,14,52,10.60
2019,10,30,14,53,10.60
2019,10,30,14,54,10.50
2019,10,30,14,55,10.50
2019,10,30,14,56,10.50
2019,10,30,14,57,10.40
2019,10,30,14,58,10.40
2019,10,30,14,59,10.30
2019,10,30,15,00,10.30
2019,10,30,15,01,10.30
2019,10,30,15,02,10.30
2019,10,30,15,03,10.30
2019,10,30,15,04,10.30
2019,10,30,15,05,10.30
2019,10,30,15,06,10.30
2019,10,30,15,07,10.30
2019,10,30,15,08,10.30
2019,10,30,15,09,10.30
2019,10,30,15,10,10.30
2019,10,30,15,11,10.40
2019,10,30,15,12,10.40
2019,10,30,15,13,10.40
2019,10,30,15,14,10.40
2019,10,30,15,15,10.40
2019,10,30,15,16,10.40
2019,10,30,15,17,10.30
2019,10,30,15,18,10.30
2019,10,30,15,19,10.30
2019,10,30,15,20,10.30
2019,10,30,15,21,10.20
2019,10,30,15,22,10.20
2019,10,30,15,23,10.20
2019,10,30,15,24,10.20
2019,10,30,15,25,10.20
2019,10,30,15,26,10.20
2019,10,30,15,27,10.20
2019,10,30,15,28,10.20
2019,10,30,15,29,10.20
2019,10,30,15,30,10.20
2019,10,30,15,31,10.20
2019,10,30,15,32,10.20
2019,10,30,15,33,10.20
2019,10,30,15,34,10.20
2019,10,30,15,35,10.20
2019,10,30,15,36,10.20
2019,10,30,15,37,10.20
2019,10,30,15,38,10.20
2019,10,30,15,39,10.20
2019,10,30,15,40,10.20
2019,10,30,15,41,10.20
2019,10,30,15,42,10.20
2019,10,30,15,43,10.20
2019,10,30,15,44,10.20
2019,10,30,15,45,10.20
2019,10,30,15,46,10.20
2019,10,30,15,47,10.20
2019,10,30,15,48,10.20
2019,10,30,15,49,10.20
2019,10,30,15,50,10.20
2019,10,30,15,51,10.20
2019,10,30,15,52,10.20
2019,10,30,15,53,10.20
2019,10,30,15,54,10.20
2019,10,30,15,55,10.20
2019,10,30,15,56,10.30
2019,10,30,15,57,10.30
2019,10,30,15,58,10.30
2019,10,30,15,59,10.30
2019,10,30,16,00,10.30
2019,10,30,16,01,10.30
2019,10,30,16,02,10.30
2019,10,30,16,03,10.30
2019,10,30,16,04,10.30
2019,10,30,16,05,10.30
2019,10,30,16,06,10.30
2019,10,30,16,07,10.30
2019,10,30,16,08,10.30
2019,10,30,16,09,10.30
2019,10,30,16,10,10.30
2019,10,30,16,11,10.30
2019,10,30,16,12,10.40
2019,10,30,16,13,10.40
2019,10,30,16,14,10.40
2019,10,30,16,15,10.40
2019,10,30,16,16,10.40
2019,10,30,16,17,10.40
2019,10,30,16,18,10.40
2019,10,30,16,19,10.40
2019,10,30,16,20,10.40
2019,10,30,16,21,10.40
2019,10,30,16,22,10.40
2019,10,30,16,23,10.40
2019,10,30,16,24,10.30
2019,10,30,16,25,10.30
2019,10,30,16,26,10.30
2019,10,30,16,27,10.30
2019,10,30,16,28,10.40
2019,10,30,16,29,10.40
2019,10,30,16,30,10.40
2019,10,30,16,31,10.30
2019,10,30,16,32,10.30
2019,10,30,16,33,10.30
2019,10,30,16,34,10.30
2019,10,30,16,35,10.30
2019,10,30,16,36,10.30
2019,10,30,16,37,10.30
2019,10,30,16,38,10.30
2019,10,30,16,39,10.30
2019,10,30,16,40,10.30
2019,10,30,16,41,10.30
2019,10,30,16,42,10.30
2019,10,30,16,43,10.30
2019,10,30,16,44,10.30
2019,10,30,16,45,10.20
2019,10,30,16,46,10.20
2019,10,30,16,47,10.20
2019,10,30,16,48,10.20
2019,10,30,16,49,10.10
2019,10,30,16,50,10.10
2019,10,30,16,51,10.10
2019,10,30,16,52,10.10
2019,10,30,16,53,10.10
2019,10,30,16,54,10.10
2019,10,30,16,55,10.10
2019,10,30,16,56,10.10
2019,10,30,16,57,10.00
2019,10,30,16,58,10.00
2019,10,30,16,59,10.00
2019,10,30,17,00,10.00
2019,10,30,17,01,10.00
2019,10,30,17,02,10.00
2019,10,30,17,03,10.00
2019,10,30,17,04,10.00
2019,10,30,17,05,9.90
2019,10,30,17,06,9.90
2019,10,30,17,07,9.90
2019,10,30,17,08,9.90
2019,10,30,17,09,9.90
2019,10,30,17,10,9.90
2019,10,30,17,11,9.90
2019,10,30,17,12,9.90
2019,10,30,17,13,9.90
2019,10,30,17,14,9.90
2019,10,30,17,15,9.90
2019,10,30,17,16,9.80
2019,10,30,17,17,9.80
2019,10,30,17,18,9.80
2019,10,30,17,19,9.80
2019,10,30,17,20,9.70
2019,10,30,17,21,9.70
2019,10,30,17,22,9.60
2019,10,30,17,23,9.60
2019,10,30,17,24,9.60
2019,10,30,17,25,9.50
2019,10,30,17,26,9.50
2019,10,30,17,27,9.50
2019,10,30,17,28,9.40
2019,10,30,17,29,9.40
2019,10,30,17,30,9.40
2019,10,30,17,31,9.40
2019,10,30,17,32,9.40
2019,10,30,17,33,9.40
2019,10,30,17,34,9.30
2019,10,30,17,35,9.30
2019,10,30,17,36,9.30
2019,10,30,17,37,9.30
2019,10,30,17,38,9.30
2019,10,30,17,39,9.30
2019,10,30,17,40,9.30
2019,10,30,17,41,9.30
2019,10,30,17,42,9.20
2019,10,30,17,43,9.20
2019,10,30,17,44,9.20
2019,10,30,17,45,9.20
2019,10,30,17,46,9.10
2019,10,30,17,47,9.10
2019,10,30,17,48,9.10
2019,10,30,17,49,9.10
2019,10,30,17,50,9.00
2019,10,30,17,51,9.00
2019,10,30,17,52,9.00
2019,10,30,17,53,8.90
2019,10,30,17,54,8.90
2019,10,30,17,55,8.90
2019,10,30,17,56,8.90
2019,10,30,17,57,8.90